QPF
0.00 0.00 0.00 0.00 0.00 0.00 0.00 0.00 0.00 0.00 0.00 0.00 0.00 0.00 0.00 0.00 0.00 0.00 0.00 0.00 0.00 0.00 0.00 0.00 0.00 0.00 0.00 0.00 0.00 0.00 0.00 0.00 0.00 0.00 0.00 0.00 0.00 0.00 0.00 0.00 0.00 0.00 0.00 0.00 0.00 0.00 0.00
0.00 0.00 0.00 0.00 0.00 0.00 0.00 0.00 0.00 0.00 0.00 0.00 0.00 0.00 0.00 0.00 0.00 0.00 0.00 0.00 0.00 0.00 0.00 0.00 0.00 0.00 0.00 0.00 0.00 0.00 0.00 0.00 0.00 0.00 0.00 0.00 0.00 0.00 0.00 0.00 0.00 0.00 0.00 0.00 0.00 0.00 0.00
0.00 0.00 0.00 0.00 0.00 0.00 0.00 0.00 0.00 0.00 0.00 0.00 0.00 0.00 0.00 0.00 0.00 0.00 0.00 0.00 0.00 0.00 0.00 0.00 0.00 0.00 0.00 0.00 0.00 0.00 0.00 0.00 0.00 0.00 0.00 0.00 0.00 0.00 0.00 0.00 0.00 0.00 0.00 0.00 0.00 0.00 0.00
0.00 0.00 0.00 0.00 0.00 0.00 0.00 0.00 0.00 0.00 0.00 0.00 0.00 0.00 0.00 0.00 0.00 0.00 0.00 0.00 0.00 0.00 0.00 0.00 0.00 0.00 0.00 0.00 0.00 0.00 0.00 0.00 0.00 0.00 0.00 0.00 0.00 0.00 0.00 0.00 0.00 0.00 0.00 0.00 0.00 0.00 0.00
0.00 0.00 0.00 0.00 0.00 0.00 0.00 0.00 0.00 0.00 0.00 0.00 0.00 0.00 0.00 0.00 0.00 0.00 0.00 0.00 0.00 0.00 0.00 0.00 0.00 0.00 0.00 0.00 0.00 0.00 0.00 0.00 0.00 0.00 0.00 0.00 0.00 0.00 0.00 0.00 0.00 0.00 0.00 0.00 0.00 0.00 0.00
0.00 0.00 0.00 0.00 0.00 0.00 0.00 0.00 0.00 0.00 0.00 0.00 0.00 0.00 0.00 0.00 0.00 0.00 0.00 0.00 0.00 0.00 0.00 0.00 0.00 0.00 0.00 0.00 0.00 0.00 0.00 0.00 0.00 0.00 0.00 0.00 0.00 0.00 0.00 0.00 0.00 0.00 0.00 0.00 0.00 0.00 0.00
0.00 0.00 0.00 0.00 0.00 0.00 0.00 0.00 0.00 0.00 0.00 0.00 0.00 0.00 0.00 0.00 0.00 0.00 0.00 0.00 0.00 0.00 0.00 0.00 0.00 0.00 0.00 0.00 0.00 0.00 0.00 0.00 0.00 0.00 0.00 0.00 0.00 0.00 0.00 0.00 0.00 0.00 0.00 0.00 0.00 0.00 0.00
0.00 0.00 0.00 0.00 0.00 0.00 0.00 0.00 0.00 0.00 0.00 0.00 0.00 0.00 0.00 0.00 0.00 0.00 0.00 0.00 0.00 0.00 0.00 0.00 0.00 0.00 0.00 0.00 0.00 0.00 0.00 0.00 0.00 0.00 0.00 0.00 0.00 0.00 0.00 0.00 0.00 0.00 0.00 0.00 0.00 0.00 0.00
0.00 0.00 0.00 0.00 0.00 0.00 0.00 0.00 0.00 0.00 0.00 0.00 0.00 0.00 0.00 0.00 0.00 0.00 0.00 0.00 0.00 0.00 0.00 0.00 0.00 0.00 0.00 0.00 0.00 0.00 0.00 0.00 0.00 0.00 0.00 0.00 0.00 0.00 0.00 0.00 0.00 0.00 0.00 0.00 0.00 0.00 0.00
0.00 0.00 0.00 0.00 0.00 0.00 0.00 0.00 0.00 0.00 0.00 0.00 0.00 0.00 0.00 0.00 0.00 0.00 0.00 0.00 0.00 0.00 0.00 0.00 0.00 0.00 0.00 0.00 0.00 0.00 0.00 0.00 0.00 0.00 0.00 0.00 0.00 0.00 0.00 0.00 0.00 0.00 0.00 0.00 0.00 0.00 0.00
0.00 0.00 0.00 0.00 0.00 0.00 0.00 0.00 0.00 0.00 0.00 0.00 0.00 0.00 0.00 0.00 0.00 0.00 0.00 0.00 0.00 0.00 0.00 0.00 0.00 0.00 0.00 0.00 0.00 0.00 0.00 0.00 0.00 0.00 0.00 0.00 0.00 0.00 0.00 0.00 0.00 0.00 0.00 0.00 0.00 0.00 0.00
0.00 0.00 0.00 0.00 0.00 0.00 0.00 0.00 0.00 0.00 0.00 0.00 0.00 0.00 0.00 0.00 0.00 0.00 0.00 0.00 0.00 0.00 0.00 0.00 0.00 0.00 0.00 0.00 0.00 0.00 0.00 0.00 0.00 0.00 0.00 0.00 0.00 0.00 0.00 0.00 0.00 0.00 0.00 0.00 0.00 0.00 0.00
0.00 0.00 0.00 0.00 0.00 0.00 0.00 0.00 0.00 0.00 0.00 0.00 0.00 0.00 0.00 0.00 0.00 0.00 0.00 0.00 0.00 0.00 0.00 0.00 0.00 0.00 0.00 0.00 0.00 0.00 0.00 0.00 0.00 0.00 0.00 0.00 0.00 0.00 0.00 0.00 0.00 0.00 0.00 0.00 0.00 0.00 0.00
0.00 0.00 0.00 0.00 0.00 0.00 0.00 0.00 0.00 0.00 0.00 0.00 0.00 0.00 0.00 0.00 0.00 0.00 0.00 0.00 0.00 0.00 0.00 0.00 0.00 0.00 0.00 0.00 0.00 0.00 0.00 0.00 0.00 0.00 0.00 0.00 0.00 0.00 0.00 0.00 0.00 0.00 0.00 0.00 0.00 0.00 0.00
0.00 0.00 0.00 0.00 0.00 0.00 0.00 0.00 0.00 0.00 0.00 0.00 0.00 0.00 0.00 0.00 0.00 0.00 0.00 0.00 0.00 0.00 0.00 0.00 0.00 0.00 0.00 0.00 0.00 0.00 0.00 0.00 0.00 0.00 0.00 0.00 0.00 0.00 0.00 0.00 0.00 0.00 0.00 0.00 0.00 0.00 0.00
0.00 0.00 0.00 0.00 0.00 0.00 0.00 0.00 0.00 0.00 0.00 0.00 0.00 0.00 0.00 0.00 0.00 0.00 0.00 0.00 0.00 0.00 0.00 0.00 0.00 0.00 0.00 0.00 0.00 0.00 0.00 0.00 0.00 0.00 0.00 0.00 0.00 0.00 0.00 0.00 0.00 0.00 0.00 0.00 0.00 0.00 0.00
0.00 0.00 0.00 0.00 0.00 0.00 0.00 0.00 0.00 0.00 0.00 0.00 0.00 0.00 0.00 0.00 0.00 0.00 0.00 0.00 0.00 0.00 0.00 0.00 0.00 0.00 0.00 0.00 0.00 0.00 0.00 0.00 0.00 0.00 0.00 0.00 0.00 0.00 0.00 0.00 0.00 0.00 0.00 0.00 0.00 0.00 0.00
0.00 0.00 0.00 0.00 0.00 0.00 0.00 0.00 0.00 0.00 0.00 0.00 0.00 0.00 0.00 0.00 0.00 0.00 0.00 0.00 0.00 0.00 0.00 0.00 0.00 0.00 0.00 0.00 0.00 0.00 0.00 0.00 0.00 0.00 0.00 0.00 0.00 0.00 0.00 0.00 0.00 0.00 0.00 0.00 0.00 0.00 0.00
0.00 0.00 0.00 0.00 0.00 0.00 0.00 0.00 0.00 0.00 0.00 0.00 0.00 0.00 0.00 0.00 0.00 0.00 0.00 0.00 0.00 0.00 0.00 0.00 0.00 0.00 0.00 0.00 0.00 0.00 0.00 0.00 0.00 0.00 0.00 0.00 0.00 0.01 0.00 0.00 0.00 0.00 0.00 0.00 0.00 0.00 0.00
0.00 0.00 0.00 0.00 0.00 0.00 0.01 0.01 0.00 0.00 0.00 0.00 0.00 0.00 0.00 0.00 0.00 0.00 0.00 0.00 0.00 0.00 0.00 0.00 0.00 0.00 0.00 0.00 0.00 0.00 0.00 0.00 0.00 0.00 0.00 0.01 0.02 0.01 0.00 0.00 0.00 0.00 0.00 0.00 0.00 0.00 0.00
0.00 0.00 0.00 0.00 0.00 0.01 0.01 0.01 0.00 0.00 0.00 0.00 0.00 0.00 0.00 0.00 0.00 0.00 0.00 0.00 0.00 0.00 0.00 0.00 0.00 0.00 0.00 0.00 0.00 0.00 0.00 0.00 0.00 0.01 0.02 0.00 0.00 0.01 0.00 0.00 0.00 0.00 0.00 0.00 0.00 0.00 0.00
0.00 0.00 0.00 0.01 0.01 0.01 0.01 0.01 0.01 0.00 0.00 0.00 0.00 0.00 0.00 0.00 0.00 0.00 0.00 0.00 0.00 0.01 0.01 0.01 0.01 0.03 0.07 0.04 0.00 0.00 0.00 0.00 0.00 0.01 0.02 0.00 0.00 0.01 0.00 0.00 0.00 0.00 0.00 0.00 0.00 0.00 0.00
0.00 0.00 0.00 0.01 0.01 0.01 0.01 0.01 0.01 0.00 0.00 0.00 0.00 0.00 0.00 0.00 0.00 0.00 0.00 0.02 0.02 0.05 0.05 0.01 0.12 0.23 0.13 0.07 0.02 0.00 0.00 0.00 0.00 0.00 0.00 0.00 0.00 0.04 0.01 0.00 0.00 0.00 0.00 0.00 0.00 0.00 0.00
0.00 0.00 0.00 0.01 0.01 0.01 0.01 0.01 0.01 0.01 0.00 0.00 0.00 0.00 0.00 0.00 0.00 0.00 0.01 0.02 0.01 0.03 0.07 0.03 0.07 0.10 0.05 0.01 0.00 0.00 0.00 0.00 0.00 0.00 0.00 0.01 0.03 0.08 0.02 0.04 0.05 0.00 0.00 0.00 0.00 0.00 0.00
0.00 0.00 0.00 0.01 0.01 0.01 0.01 0.01 0.01 0.01 0.02 0.00 0.00 0.00 0.01 0.00 0.00 0.00 0.01 0.01 0.01 0.01 0.01 0.01 0.01 0.00 0.00 0.00 0.02 0.04 0.01 0.01 0.00 0.00 0.00 0.01 0.07 0.09 0.11 0.14 0.10 0.04 0.00 0.00 0.00 0.00 0.00
0.00 0.00 0.01 0.01 0.01 0.01 0.01 0.01 0.01 0.01 0.01 0.00 0.00 0.00 0.01 0.01 0.00 0.01 0.01 0.01 0.01 0.00 0.00 0.00 0.00 0.00 0.00 0.02 0.08 0.14 0.08 0.04 0.01 0.01 0.00 0.02 0.06 0.15 0.17 0.26 0.28 0.03 0.00 0.00 0.00 0.00 0.00
0.00 0.00 0.01 0.01 0.01 0.01 0.01 0.01 0.01 0.01 0.01 0.00 0.00 0.00 0.00 0.00 0.00 0.00 0.03 0.03 0.01 0.04 0.03 0.00 0.00 0.00 0.01 0.07 0.08 0.10 0.20 0.28 0.25 0.13 0.07 0.05 0.10 0.16 0.15 0.23 0.34 0.02 0.01 0.00 0.00 0.00 0.00
0.00 0.00 0.00 0.01 0.01 0.01 0.00 0.00 0.00 0.00 0.00 0.00 0.00 0.00 0.00 0.00 0.00 0.00 0.02 0.07 0.03 0.04 0.06 0.01 0.00 0.03 0.05 0.10 0.10 0.15 0.21 0.22 0.19 0.17 0.11 0.11 0.17 0.31 0.22 0.28 0.36 0.03 0.02 0.01 0.00 0.00 0.00
0.00 0.00 0.01 0.01 0.01 0.01 0.00 0.00 0.00 0.00 0.00 0.00 0.00 0.00 0.00 0.00 0.00 0.00 0.00 0.01 0.04 0.02 0.03 0.01 0.00 0.02 0.12 0.14 0.08 0.11 0.14 0.10 0.10 0.13 0.13 0.16 0.20 0.21 0.21 0.36 0.32 0.04 0.01 0.00 0.00 0.00 0.00
MSLP
1025.00 1024.68 1024.35 1023.98 1023.51 1023.01 1022.50 1021.96 1021.39 1020.85 1020.30 1019.64 1018.96 1018.34 1017.62 1016.80 1016.08 1015.30 1014.85 1014.35 1013.83 1013.27 1012.95 1012.77 1012.86 1012.95 1012.92 1011.85 1010.22 1009.34 1008.57 1008.55 1009.05 1009.32 1009.30 1009.39 1009.70 1009.60 1009.42 1009.45 1009.50 1009.06 1008.47 1007.98 1007.77 1007.36 1007.12
1025.14 1024.81 1024.45 1024.04 1023.57 1023.04 1022.52 1021.98 1021.42 1020.87 1020.32 1019.66 1018.85 1018.17 1017.54 1016.75 1015.87 1015.04 1014.56 1013.97 1013.45 1012.96 1012.65 1012.54 1012.72 1012.80 1012.28 1010.75 1009.77 1009.66 1009.28 1009.20 1009.11 1009.27 1009.31 1009.41 1009.25 1009.37 1009.30 1009.30 1009.06 1008.34 1008.38 1007.83 1007.36 1007.06 1006.93
1025.25 1024.90 1024.52 1024.10 1023.67 1023.20 1022.67 1022.09 1021.49 1020.88 1020.29 1019.58 1018.78 1017.89 1017.22 1016.47 1015.63 1014.76 1014.24 1013.72 1013.10 1012.70 1012.40 1012.49 1012.65 1012.56 1011.50 1010.41 1009.70 1009.57 1009.52 1009.30 1009.46 1009.46 1009.34 1009.63 1009.30 1009.18 1009.12 1008.77 1008.72 1008.52 1008.22 1007.66 1007.00 1006.67 1006.48
1025.31 1024.98 1024.59 1024.13 1023.65 1023.17 1022.64 1022.04 1021.43 1020.83 1020.26 1019.58 1018.81 1017.92 1017.12 1016.27 1015.39 1014.60 1013.94 1013.40 1012.88 1012.58 1012.60 1012.68 1012.60 1012.33 1010.52 1009.72 1009.64 1009.32 1009.25 1009.26 1009.56 1009.82 1009.58 1009.65 1009.50 1009.39 1009.30 1008.96 1008.47 1008.24 1008.19 1007.44 1006.18 1006.19 1006.13
1025.46 1025.05 1024.63 1024.21 1023.72 1023.25 1022.74 1022.09 1021.46 1020.74 1020.06 1019.41 1018.64 1017.79 1016.81 1015.92 1015.04 1014.40 1013.50 1012.87 1012.67 1012.70 1012.76 1012.64 1012.36 1011.90 1010.17 1009.31 1009.21 1009.04 1009.10 1008.86 1009.26 1009.80 1009.74 1009.37 1009.53 1009.49 1009.44 1008.89 1008.31 1007.99 1006.83 1006.74 1005.84 1005.54 1005.30
1025.56 1025.13 1024.68 1024.19 1023.72 1023.23 1022.63 1022.00 1021.31 1020.61 1020.01 1019.40 1018.47 1017.50 1016.59 1015.81 1014.84 1014.21 1013.43 1012.92 1012.75 1012.85 1012.92 1012.69 1012.14 1011.68 1010.07 1010.02 1009.62 1009.25 1008.86 1008.83 1008.94 1009.54 1009.88 1009.76 1009.54 1009.34 1009.18 1008.68 1007.47 1007.14 1006.76 1006.26 1005.27 1004.84 1004.99
1025.58 1025.19 1024.74 1024.28 1023.74 1023.14 1022.51 1021.88 1021.19 1020.47 1019.68 1019.02 1018.39 1017.62 1016.67 1015.86 1014.82 1014.01 1013.62 1013.02 1013.10 1012.84 1012.34 1012.69 1012.34 1011.57 1010.69 1010.05 1009.78 1009.24 1009.13 1008.74 1008.98 1009.41 1009.28 1009.67 1009.25 1007.72 1008.22 1008.76 1008.38 1007.84 1007.15 1006.14 1005.67 1004.94 1004.64
1025.44 1025.08 1024.63 1024.13 1023.61 1023.07 1022.44 1021.78 1021.05 1020.36 1019.57 1018.91 1018.26 1017.56 1016.48 1015.41 1014.58 1013.68 1013.43 1013.30 1014.24 1014.48 1013.39 1012.50 1012.12 1011.48 1010.72 1010.42 1009.71 1009.36 1009.18 1008.90 1008.76 1008.91 1009.48 1009.79 1008.48 1008.36 1008.79 1009.08 1008.88 1008.34 1007.66 1006.71 1005.95 1005.62 1005.02
1025.37 1024.94 1024.51 1024.04 1023.52 1022.92 1022.28 1021.68 1021.00 1020.33 1019.56 1018.90 1017.99 1016.94 1016.01 1015.06 1014.30 1013.81 1013.98 1014.13 1014.55 1014.29 1013.56 1012.46 1011.86 1011.11 1010.69 1010.41 1010.46 1010.28 1010.16 1009.55 1008.86 1008.84 1008.92 1008.52 1008.18 1008.09 1008.68 1008.75 1008.69 1008.22 1007.72 1007.21 1006.67 1006.05 1005.02
1025.28 1024.80 1024.39 1023.91 1023.43 1022.83 1022.18 1021.62 1021.02 1020.19 1019.43 1018.59 1017.75 1016.75 1015.96 1014.90 1014.45 1014.77 1014.36 1014.43 1014.31 1014.14 1013.07 1012.38 1011.62 1011.30 1010.78 1010.54 1010.78 1010.93 1010.77 1010.50 1009.47 1009.03 1008.90 1008.60 1008.14 1008.22 1008.20 1007.85 1008.29 1007.64 1007.87 1007.82 1007.24 1006.63 1004.84
1025.11 1024.68 1024.18 1023.73 1023.22 1022.76 1022.11 1021.42 1020.80 1019.95 1019.20 1018.35 1017.57 1016.64 1016.11 1015.47 1015.13 1014.56 1014.86 1014.44 1014.12 1013.65 1012.91 1012.08 1011.53 1011.41 1011.36 1011.16 1011.70 1011.42 1011.35 1010.73 1010.30 1009.87 1009.71 1008.13 1007.85 1007.74 1007.55 1007.52 1007.86 1007.32 1007.73 1007.67 1007.58 1007.03 1006.34
1024.98 1024.54 1024.05 1023.60 1023.09 1022.55 1021.93 1021.26 1020.53 1019.79 1019.07 1018.16 1017.42 1016.65 1016.20 1015.49 1015.27 1014.48 1014.59 1014.13 1013.87 1013.45 1012.29 1012.10 1011.90 1011.83 1011.94 1012.16 1012.34 1012.19 1012.13 1011.92 1011.69 1010.93 1010.24 1009.26 1008.76 1007.78 1006.93 1006.94 1007.50 1007.46 1007.69 1007.52 1007.35 1006.93 1005.43
1024.63 1024.33 1023.90 1023.47 1023.02 1022.61 1021.94 1021.22 1020.44 1019.67 1018.89 1018.03 1017.09 1016.42 1016.06 1015.52 1014.75 1014.01 1014.14 1013.66 1013.66 1012.93 1012.68 1012.61 1012.52 1012.68 1012.81 1012.98 1013.10 1012.96 1013.16 1013.04 1012.78 1011.89 1011.10 1010.26 1008.83 1008.07 1007.46 1007.08 1007.02 1007.21 1007.24 1006.64 1006.60 1005.64 1003.36
1024.57 1024.21 1023.75 1023.39 1022.97 1022.47 1021.82 1021.13 1020.42 1019.64 1018.72 1017.88 1016.83 1016.05 1015.63 1015.08 1014.55 1014.21 1013.64 1013.44 1013.19 1012.82 1012.72 1013.04 1013.18 1013.26 1013.21 1013.40 1013.64 1013.55 1013.71 1013.89 1014.18 1013.61 1012.65 1011.49 1009.61 1009.04 1009.20 1007.34 1006.64 1006.41 1006.36 1005.13 1004.40 1003.52 1002.90
1024.29 1023.82 1023.62 1023.28 1022.92 1022.44 1021.74 1020.98 1020.29 1019.52 1018.62 1017.60 1016.65 1015.93 1015.30 1014.75 1014.36 1014.09 1013.40 1013.26 1012.90 1013.06 1013.21 1013.25 1013.54 1013.32 1013.49 1013.64 1013.60 1013.73 1014.07 1014.54 1015.00 1014.80 1013.78 1013.02 1011.61 1010.55 1010.04 1009.31 1008.41 1006.14 1005.36 1005.15 1004.41 1004.04 1002.73
1024.20 1023.82 1023.42 1023.12 1022.83 1022.34 1021.66 1020.81 1020.12 1019.40 1018.57 1017.53 1017.08 1016.32 1015.12 1014.60 1014.28 1013.73 1013.62 1013.71 1013.75 1013.76 1013.70 1013.69 1013.51 1013.69 1013.65 1013.83 1014.04 1014.18 1014.35 1014.80 1015.28 1015.64 1015.40 1014.80 1013.22 1011.78 1010.78 1009.74 1007.67 1006.64 1005.15 1005.33 1004.73 1003.04 1001.50
1023.97 1023.62 1023.24 1022.96 1022.60 1022.19 1021.61 1020.85 1020.12 1019.37 1018.48 1017.47 1017.06 1015.88 1014.88 1014.58 1014.19 1013.93 1014.26 1014.72 1014.55 1014.09 1014.00 1013.83 1013.61 1013.62 1013.68 1013.83 1014.07 1014.36 1014.40 1015.04 1015.44 1015.96 1016.07 1015.65 1014.73 1012.60 1011.88 1010.16 1007.90 1006.62 1006.18 1004.68 1004.02 1002.81 1000.81
1024.02 1023.43 1023.16 1022.80 1022.41 1022.01 1021.53 1020.92 1020.21 1019.55 1018.74 1017.87 1017.70 1016.20 1015.27 1014.52 1014.84 1016.17 1016.12 1016.55 1016.26 1014.90 1014.57 1014.16 1014.07 1013.91 1013.98 1014.17 1014.25 1014.50 1014.37 1014.40 1015.38 1015.80 1015.92 1016.06 1015.70 1014.00 1012.18 1011.01 1009.86 1009.46 1007.89 1005.42 1003.79 1002.28 1001.46
1023.81 1023.40 1023.00 1022.62 1022.22 1021.87 1021.49 1020.98 1020.41 1019.90 1019.53 1019.20 1018.79 1017.94 1016.11 1015.18 1016.28 1017.24 1017.55 1017.21 1016.73 1015.72 1015.22 1014.87 1014.56 1014.58 1014.70 1014.64 1014.78 1014.62 1014.74 1014.92 1015.42 1015.67 1015.95 1016.38 1016.12 1014.51 1011.77 1009.76 1009.08 1008.88 1007.76 1007.17 1004.61 1003.05 1000.58
1023.74 1023.34 1022.84 1022.49 1022.11 1021.73 1021.38 1020.97 1020.49 1020.10 1019.83 1019.72 1019.22 1018.37 1017.75 1017.80 1018.98 1018.97 1018.92 1018.22 1017.18 1016.41 1015.94 1015.90 1015.58 1015.28 1015.30 1015.19 1015.18 1014.91 1014.97 1015.34 1015.52 1015.72 1016.20 1016.51 1016.10 1015.18 1013.82 1011.78 1011.32 1010.50 1008.88 1007.94 1005.80 1002.50 1000.88
1023.68 1023.20 1022.72 1022.36 1021.99 1021.58 1021.23 1020.85 1020.50 1020.18 1019.99 1019.91 1019.86 1020.19 1020.38 1019.58 1019.36 1019.66 1019.51 1019.13 1018.30 1017.40 1017.16 1016.84 1016.37 1016.32 1016.39 1015.99 1015.60 1015.28 1015.14 1015.20 1015.56 1015.75 1016.15 1016.56 1015.87 1015.35 1014.65 1013.66 1012.55 1011.32 1010.00 1008.44 1006.81 1003.64 1000.56
1023.34 1023.02 1022.62 1022.12 1021.78 1021.38 1021.02 1020.67 1020.41 1020.23 1020.09 1020.03 1020.36 1020.65 1020.73 1020.48 1020.40 1020.16 1020.01 1019.51 1019.05 1018.46 1018.24 1017.56 1017.26 1016.92 1016.98 1016.62 1015.84 1015.19 1014.99 1014.95 1014.64 1015.18 1015.67 1016.36 1015.71 1015.48 1014.46 1013.20 1012.28 1010.37 1008.89 1007.73 1006.40 1004.26 1001.95
1023.14 1022.80 1022.35 1021.90 1021.56 1021.16 1020.77 1020.51 1020.27 1020.22 1020.17 1020.27 1020.85 1020.90 1021.00 1020.89 1020.58 1020.40 1020.10 1019.84 1019.30 1018.90 1018.10 1017.68 1017.48 1017.36 1017.04 1016.65 1016.44 1015.73 1015.16 1015.17 1015.06 1014.94 1015.14 1015.98 1016.28 1016.03 1013.81 1012.73 1011.22 1007.99 1005.89 1005.94 1005.12 1003.29 1001.86
1022.72 1022.52 1022.06 1021.65 1021.32 1020.96 1020.64 1020.36 1020.15 1020.12 1020.25 1020.46 1020.67 1020.77 1020.88 1020.77 1020.64 1020.35 1020.05 1019.81 1019.16 1018.74 1018.24 1017.66 1017.23 1017.01 1016.68 1016.24 1016.13 1015.46 1014.80 1014.42 1014.33 1014.19 1014.98 1015.43 1016.16 1016.06 1013.78 1013.10 1009.47 1004.88 1003.36 1003.63 1003.85 1003.57 1002.16
1022.58 1022.14 1021.80 1021.35 1021.08 1020.78 1020.48 1020.21 1020.03 1019.93 1019.98 1020.35 1020.56 1020.74 1020.82 1020.75 1020.54 1020.19 1019.92 1019.38 1018.70 1018.50 1017.99 1017.29 1016.79 1016.53 1016.18 1016.15 1015.73 1014.80 1014.09 1013.88 1012.78 1013.09 1013.66 1014.60 1015.66 1015.51 1014.33 1012.16 1008.77 1005.18 1003.76 1002.98 1002.77 1003.99 1003.81
1022.44 1021.98 1021.50 1021.15 1020.82 1020.55 1020.24 1019.99 1019.83 1019.71 1019.74 1020.12 1020.35 1020.54 1020.77 1020.78 1020.27 1020.05 1019.60 1019.00 1018.74 1018.27 1017.69 1017.02 1016.39 1016.07 1016.04 1015.63 1015.30 1014.42 1013.74 1013.17 1012.26 1011.96 1012.64 1014.21 1015.11 1015.65 1014.45 1012.36 1008.31 1005.69 1005.12 1004.69 1004.03 1004.15 1004.84
1022.16 1021.79 1021.25 1020.92 1020.60 1020.32 1020.03 1019.78 1019.62 1019.53 1019.54 1019.81 1020.06 1020.36 1020.58 1020.47 1019.86 1019.79 1019.36 1019.17 1018.72 1018.67 1018.23 1017.37 1016.69 1016.09 1016.00 1015.61 1015.06 1014.40 1013.58 1013.54 1012.59 1012.58 1013.30 1014.11 1014.93 1014.71 1014.30 1012.89 1009.91 1007.09 1005.62 1004.75 1004.43 1006.29 1005.87
1021.77 1021.56 1021.07 1020.76 1020.43 1020.12 1019.85 1019.63 1019.52 1019.48 1019.44 1019.60 1020.04 1020.18 1020.38 1020.23 1019.48 1019.26 1019.16 1018.88 1018.60 1018.56 1018.37 1017.65 1016.87 1016.64 1016.16 1016.01 1015.48 1014.88 1014.16 1013.62 1012.96 1013.21 1013.40 1013.93 1014.32 1013.61 1013.69 1012.86 1010.83 1008.20 1006.10 1005.07 1006.50 1006.68 1006.51
1021.74 1021.38 1020.92 1020.60 1020.29 1019.95 1019.70 1019.52 1019.40 1019.46 1019.49 1019.63 1019.87 1020.11 1020.25 1020.28 1019.40 1019.07 1018.68 1018.52 1018.48 1018.21 1018.10 1017.92 1017.58 1017.07 1016.88 1016.70 1016.19 1015.58 1014.88 1014.44 1013.88 1013.53 1013.64 1013.81 1013.76 1013.07 1012.85 1012.03 1010.38 1009.21 1007.60 1007.36 1007.37 1007.27 1007.12
Thickness
5657 5658 5659 5661 5664 5667 5670 5673 5676 5679 5683 5687 5691 5696 5700 5706 5711 5717 5720 5724 5728 5733 5735 5737 5736 5736 5738 5746 5755 5768 5777 5779 5775 5773 5769 5764 5757 5758 5752 5758 5760 5759 5771 5781 5786 5791 5793
5655 5656 5657 5659 5662 5665 5668 5670 5673 5676 5679 5683 5688 5693 5697 5702 5708 5714 5718 5722 5727 5731 5733 5734 5732 5732 5737 5743 5758 5760 5765 5769 5768 5767 5765 5763 5760 5762 5756 5754 5757 5771 5769 5777 5786 5789 5793
5653 5654 5656 5657 5659 5661 5664 5666 5669 5672 5675 5679 5684 5690 5694 5698 5704 5710 5714 5718 5722 5726 5728 5728 5726 5728 5735 5738 5753 5756 5758 5760 5761 5760 5757 5760 5763 5760 5761 5756 5766 5764 5757 5771 5781 5787 5788
5652 5652 5653 5654 5656 5658 5660 5662 5665 5667 5670 5674 5678 5684 5689 5694 5700 5705 5710 5714 5717 5719 5718 5718 5719 5721 5733 5745 5747 5751 5754 5754 5754 5754 5755 5757 5760 5755 5752 5762 5758 5752 5757 5744 5781 5787 5792
5650 5650 5651 5651 5652 5654 5655 5657 5659 5662 5665 5669 5673 5678 5685 5691 5697 5700 5707 5711 5711 5711 5709 5709 5712 5713 5720 5740 5739 5746 5747 5746 5747 5744 5747 5754 5751 5744 5746 5742 5741 5742 5752 5751 5769 5793 5795
5645 5646 5647 5647 5648 5648 5650 5652 5654 5657 5659 5661 5666 5672 5678 5683 5691 5694 5699 5702 5702 5703 5701 5701 5705 5708 5717 5711 5726 5734 5741 5741 5737 5733 5728 5729 5734 5731 5735 5736 5729 5741 5751 5759 5768 5790 5792
5641 5640 5640 5641 5642 5643 5644 5646 5648 5650 5653 5656 5658 5661 5667 5672 5680 5685 5686 5690 5691 5695 5696 5689 5690 5692 5700 5710 5718 5720 5726 5727 5726 5721 5713 5717 5716 5732 5734 5733 5739 5741 5745 5755 5768 5789 5787
5637 5636 5635 5635 5635 5635 5636 5638 5640 5642 5645 5648 5650 5652 5658 5664 5669 5675 5674 5673 5663 5663 5670 5677 5677 5681 5692 5694 5695 5704 5715 5709 5710 5705 5705 5701 5709 5731 5728 5722 5721 5726 5729 5743 5762 5770 5778
5630 5629 5628 5627 5627 5627 5628 5628 5630 5631 5633 5636 5642 5646 5650 5655 5658 5659 5655 5652 5647 5648 5649 5659 5666 5669 5674 5682 5673 5679 5688 5691 5696 5693 5696 5699 5716 5724 5715 5712 5711 5719 5723 5734 5738 5753 5772
5623 5622 5620 5618 5617 5617 5617 5617 5618 5621 5623 5627 5631 5635 5638 5644 5646 5638 5640 5635 5635 5636 5637 5640 5646 5650 5657 5661 5654 5666 5670 5672 5680 5682 5687 5690 5712 5705 5705 5710 5711 5708 5727 5726 5731 5730 5741
5616 5614 5613 5611 5608 5607 5607 5608 5608 5611 5612 5616 5619 5623 5624 5626 5627 5630 5623 5621 5623 5625 5617 5629 5630 5641 5636 5637 5635 5640 5651 5655 5655 5662 5666 5683 5695 5697 5695 5706 5711 5714 5723 5718 5719 5716 5722
5609 5607 5604 5601 5599 5598 5598 5597 5598 5599 5601 5605 5608 5610 5610 5613 5610 5614 5609 5611 5613 5607 5602 5610 5614 5612 5613 5614 5615 5623 5624 5632 5634 5639 5648 5662 5679 5691 5699 5711 5703 5716 5705 5707 5709 5707 5688
5604 5599 5596 5592 5588 5585 5585 5586 5588 5589 5590 5593 5597 5599 5599 5599 5604 5605 5602 5606 5597 5593 5601 5595 5596 5598 5596 5595 5598 5604 5601 5604 5609 5623 5624 5636 5659 5676 5687 5686 5696 5698 5689 5679 5673 5675 5693
5597 5592 5587 5582 5579 5576 5575 5575 5576 5578 5580 5581 5586 5590 5590 5590 5592 5594 5597 5595 5580 5587 5587 5589 5586 5585 5585 5587 5585 5590 5591 5590 5588 5595 5602 5609 5640 5647 5647 5677 5679 5687 5688 5682 5671 5690 5712
5589 5586 5580 5575 5571 5566 5565 5566 5566 5566 5569 5572 5577 5580 5583 5583 5584 5585 5591 5577 5582 5579 5579 5576 5572 5572 5571 5574 5577 5577 5576 5574 5569 5575 5589 5592 5607 5627 5630 5639 5650 5683 5677 5707 5693 5699 5703
5580 5574 5569 5565 5561 5559 5557 5557 5557 5557 5559 5563 5563 5565 5574 5574 5577 5581 5578 5567 5568 5567 5566 5564 5559 5558 5555 5557 5557 5558 5558 5562 5556 5556 5563 5567 5585 5605 5613 5627 5656 5665 5705 5662 5675 5671 5679
5574 5568 5563 5558 5555 5551 5549 5550 5550 5551 5553 5557 5557 5570 5569 5569 5572 5573 5566 5556 5553 5558 5556 5552 5550 5549 5548 5546 5546 5542 5545 5545 5543 5539 5543 5550 5562 5590 5598 5611 5641 5660 5650 5673 5689 5696 5695
5566 5564 5558 5553 5550 5547 5545 5546 5546 5547 5550 5552 5546 5567 5562 5565 5563 5539 5543 5527 5527 5541 5541 5541 5539 5538 5534 5531 5529 5528 5531 5536 5530 5528 5528 5533 5530 5549 5578 5602 5612 5610 5620 5663 5666 5679 5696
5562 5558 5554 5551 5548 5546 5543 5542 5541 5541 5540 5539 5534 5534 5550 5556 5546 5532 5518 5517 5519 5526 5526 5523 5520 5518 5515 5514 5510 5514 5512 5517 5513 5513 5513 5514 5513 5534 5573 5610 5615 5604 5628 5632 5672 5692 5689
5558 5555 5553 5550 5548 5545 5542 5539 5538 5535 5533 5530 5533 5545 5539 5529 5510 5505 5495 5505 5511 5515 5512 5505 5501 5501 5498 5497 5496 5498 5496 5494 5498 5499 5498 5497 5500 5512 5530 5563 5566 5565 5593 5609 5638 5666 5681
5556 5554 5553 5550 5547 5544 5541 5539 5535 5532 5529 5526 5523 5515 5503 5513 5512 5497 5493 5490 5493 5495 5490 5485 5484 5481 5475 5478 5482 5484 5485 5485 5486 5486 5482 5481 5489 5495 5502 5519 5529 5546 5563 5586 5598 5646 5677
5558 5555 5553 5551 5547 5545 5542 5539 5535 5530 5528 5524 5523 5513 5502 5504 5494 5494 5487 5487 5479 5473 5464 5463 5464 5466 5455 5460 5476 5481 5480 5481 5485 5480 5474 5469 5478 5478 5484 5507 5518 5536 5565 5582 5600 5629 5661
5559 5557 5555 5553 5549 5546 5543 5540 5537 5532 5528 5524 5511 5507 5502 5502 5499 5491 5488 5473 5466 5459 5460 5459 5454 5440 5445 5452 5453 5465 5471 5468 5469 5471 5471 5458 5453 5458 5486 5504 5512 5538 5578 5593 5612 5644 5667
5563 5558 5558 5555 5551 5547 5545 5542 5539 5534 5529 5523 5516 5510 5505 5502 5495 5489 5480 5468 5462 5457 5455 5457 5455 5449 5451 5457 5454 5459 5463 5464 5463 5467 5462 5452 5442 5453 5483 5487 5510 5583 5615 5623 5627 5632 5663
5563 5561 5558 5556 5553 5549 5546 5543 5540 5537 5532 5526 5518 5512 5505 5500 5494 5486 5477 5466 5466 5461 5462 5460 5463 5457 5455 5449 5445 5451 5451 5444 5460 5463 5464 5462 5442 5454 5463 5494 5530 5579 5602 5615 5636 5623 5644
5562 5560 5558 5556 5554 5550 5547 5544 5541 5539 5535 5527 5520 5512 5504 5498 5496 5486 5476 5470 5463 5463 5466 5468 5468 5460 5454 5450 5448 5454 5457 5458 5472 5474 5471 5458 5453 5446 5458 5497 5549 5572 5585 5602 5623 5627 5634
5562 5558 5558 5555 5554 5551 5548 5545 5542 5539 5535 5530 5523 5514 5505 5500 5498 5488 5481 5471 5472 5462 5457 5463 5463 5462 5456 5452 5458 5462 5465 5446 5470 5466 5460 5457 5455 5460 5472 5486 5511 5560 5586 5607 5621 5612 5625
5565 5558 5557 5554 5553 5551 5548 5546 5542 5539 5537 5531 5523 5516 5509 5503 5506 5496 5487 5481 5478 5472 5463 5467 5474 5463 5459 5459 5461 5459 5465 5467 5474 5465 5470 5469 5472 5480 5486 5496 5514 5547 5586 5600 5597 5606 5622
5564 5560 5558 5555 5553 5551 5549 5546 5542 5539 5535 5531 5526 5517 5510 5504 5508 5501 5497 5490 5482 5480 5473 5468 5471 5466 5463 5458 5461 5461 5469 5470 5478 5488 5474 5487 5474 5494 5494 5504 5497 5536 5569 5583 5593 5603 5617